Location: Unspecified
(44.3125°N, 0.0000°E)
Time: 02:18:59
(UTC+00:00)

YUNHAI 2 2 - Visible Passes

Search period start: 04 April 2026 00:00
Search period end: 14 April 2026 00:00
Orbit: 792 x 799 km, 50.0° (Epoch: 29 March)

Date Brightness Start Highest point End Pass type
(mag) Time Alt. Az. Time Alt. Az. Time Alt. Az.
4 Apr ? 20:21:20 10° W 20:26:42 49° N 20:30:31 19° ENE visible
4 Apr ? 22:07:22 10° WNW 22:11:17 42° NW 22:11:17 42° NW visible
5 Apr ? 19:50:39 10° W 19:56:01 50° N 20:01:15 11° ENE visible
5 Apr ? 21:36:43 10° WNW 21:42:01 52° N 21:42:01 52° N visible
5 Apr ? 23:22:17 10° WNW 23:22:47 13° WNW 23:22:47 13° WNW visible
6 Apr ? 19:19:57 10° W 19:25:22 52° NNW 19:30:47 10° ENE visible
6 Apr ? 21:06:05 10° WNW 21:11:29 51° N 21:12:42 43° NE visible
6 Apr ? 22:51:40 10° WNW 22:53:28 21° WNW 22:53:28 21° WNW visible
7 Apr ? 20:35:26 10° WNW 20:40:49 49° N 20:43:23 28° ENE visible
7 Apr ? 22:21:03 10° WNW 22:24:09 35° WNW 22:24:09 35° WNW visible
8 Apr ? 20:04:47 10° WNW 20:10:08 48° N 20:14:03 18° ENE visible
8 Apr ? 21:50:26 10° WNW 21:54:49 57° WNW 21:54:49 57° WNW visible
9 Apr ? 19:34:07 10° WNW 19:39:27 47° N 19:44:43 10° ENE visible
9 Apr ? 21:19:49 10° WNW 21:25:23 80° NNE 21:25:29 80° NE visible
9 Apr ? 23:05:37 10° WNW 23:06:15 13° W 23:06:15 13° W visible
10 Apr ? 19:03:27 10° WNW 19:08:46 46° N 19:14:07 10° ENE visible
10 Apr ? 20:49:12 10° WNW 20:54:45 74° NNE 20:56:10 50° E visible
10 Apr ? 22:34:55 10° WNW 22:36:56 21° W 22:36:56 21° W visible
11 Apr ? 20:18:35 10° WNW 20:24:07 69° NNE 20:26:52 30° E visible
11 Apr ? 22:04:14 10° WNW 22:07:38 32° W 22:07:38 32° W visible
12 Apr ? 19:47:58 10° WNW 19:53:29 64° NNE 19:57:35 18° E visible
12 Apr ? 21:33:34 10° WNW 21:38:21 45° SW 21:38:21 45° SW visible
13 Apr ? 19:17:21 10° WNW 19:22:49 60° NNE 19:28:18 10° E visible
13 Apr ? 21:02:54 10° WNW 21:08:16 53° SW 21:09:06 48° S visible
